Location: Innsbruck
(47.2657°N, 11.3914°E)
Time: 16:09:28
(UTC+02:00)

N. Korean satellite - Pass Details

Date: 27 September 2021
Orbit: 450 x 495 km, 97.3° (Epoch: 19 October)

Event Time Altitude Azimuth Distance (km) Brightness Sun altitude
Rises 06:07:56 0° 20° (NNE) 2,533 10.6 -11.0°
Reaches altitude 10° 06:10:05 10° 28° (NNE) 1,658 9.8 -10.6°
Maximum altitude 06:13:26 37° 98° (E) 766 8.3 -10.1°
Drops below altitude 10° 06:16:47 10° 167° (SSE) 1,667 9.4 -9.5°
Sets 06:18:57 0° 176° (S) 2,549 10.2 -9.1°
